Chickasha, OK

11:09 PM CDT on April 26, 2018 (GMT -0500)
Chickasha Municipal

Weather History for KCHK - January, 2013

Change the Weather History Date:

Monday, January 28, 2013

  Actual Average Record
Temperature  
Mean Temperature 66 °F -  
Max Temperature 73 °F 51 °F 77 °F (2011)
Min Temperature 59 °F 27 °F 2 °F (1963)
Cooling Degree Days 1    
Growing Degree Days 16 (Base 50)    
Moisture  
Dew Point 60 °F    
Average Humidity 81    
Maximum Humidity 100    
Minimum Humidity 69    
Precipitation  
Precipitation 0.00 in - - ()
Sea Level Pressure  
Sea Level Pressure 29.83 in    
Wind  
Wind Speed 15 mph (South)    
Max Wind Speed 22 mph    
Max Gust Speed 30 mph    
Visibility 10 miles    
Events      
Averages and records for this station are not official NWS values.
T = Trace of Precipitation, MM = Missing Value Source: NWS Daily Summary

Daily Weather History Graph

Daily Weather History Graph

Search for Another Location

Airport or City:

Astronomy

Jan. 28, 2013 Rise Set
Actual Time 7:33 AM CST 5:56 PM CST
Civil Twilight 7:06 AM CST 6:23 PM CST
Nautical Twilight 6:36 AM CST 6:54 PM CST
Astronomical Twilight 6:06 AM CST 7:24 PM CST
Moon 7:46 PM CST (1/28) 8:05 AM CST (1/28)
Length of Visible Light 11h 16m
Length of Day
10h 23m
Full, 98% of the Moon is Illuminated
Jan 28
Full
Feb 3
Last Quarter
Feb 10
New
Feb 17
First Quarter
Feb 25
Full

Hourly Weather History & Observations

Time (CST) Temp. Dew Point Humidity Pressure Visibility Wind Dir Wind Speed Gust Speed Precip Events Conditions
12:15 AM 62.6 °F 55.4 °F 77% 29.88 in 10.0 mi South 10.4 mph - N/A   Mostly Cloudy
12:35 AM 62.6 °F 55.4 °F 77% 29.87 in 10.0 mi South 12.7 mph 18.4 mph N/A   Overcast
12:55 AM 62.6 °F 55.4 °F 77% 29.88 in 10.0 mi South 10.4 mph - N/A   Mostly Cloudy
1:15 AM 60.8 °F 55.4 °F 82% 29.88 in 10.0 mi SSW 11.5 mph 17.3 mph N/A   Mostly Cloudy
1:35 AM 62.6 °F 55.4 °F 77% 29.88 in 10.0 mi SSW 12.7 mph 19.6 mph N/A   Overcast
1:55 AM 62.6 °F 55.4 °F 77% 29.88 in 10.0 mi SSW 12.7 mph 20.7 mph N/A   Mostly Cloudy
2:15 AM 62.6 °F 55.4 °F 77% 29.89 in 10.0 mi SSW 13.8 mph 23.0 mph N/A   Mostly Cloudy
2:35 AM 60.8 °F 55.4 °F 82% 29.89 in 10.0 mi SSW 13.8 mph 20.7 mph N/A   Mostly Cloudy
2:55 AM 60.8 °F 57.2 °F 88% 29.89 in 10.0 mi SSW 12.7 mph 18.4 mph N/A   Mostly Cloudy
3:15 AM 60.8 °F 55.4 °F 82% 29.89 in 10.0 mi SSW 13.8 mph 20.7 mph N/A   Mostly Cloudy
3:35 AM 60.8 °F 55.4 °F 82% 29.89 in 10.0 mi SSW 15.0 mph - N/A   Mostly Cloudy
3:55 AM 59.0 °F 55.4 °F 88% 29.89 in 10.0 mi SSW 13.8 mph 18.4 mph N/A   Mostly Cloudy
4:15 AM 59.0 °F 55.4 °F 88% 29.89 in 10.0 mi SSW 13.8 mph 19.6 mph N/A   Mostly Cloudy
4:35 AM 59.0 °F 55.4 °F 88% 29.89 in 10.0 mi SSW 13.8 mph 19.6 mph N/A   Scattered Clouds
4:55 AM 59.0 °F 55.4 °F 88% 29.89 in 10.0 mi SSW 13.8 mph - N/A   Clear
5:15 AM 59.0 °F 55.4 °F 88% 29.89 in 10.0 mi SSW 13.8 mph 17.3 mph N/A   Clear
5:35 AM 59.0 °F 55.4 °F 88% 29.89 in 10.0 mi South 11.5 mph - N/A   Clear
6:15 AM 59.0 °F 57.2 °F 94% 29.89 in 10.0 mi South 13.8 mph 18.4 mph N/A   Clear
6:35 AM 59.0 °F 59.0 °F 100% 29.90 in 10.0 mi South 15.0 mph 18.4 mph N/A   Clear
6:55 AM 59.0 °F 59.0 °F 100% 29.90 in 10.0 mi South 12.7 mph - N/A   Scattered Clouds
7:15 AM 60.8 °F 59.0 °F 94% 29.91 in 10.0 mi SSW 15.0 mph 21.9 mph N/A   Scattered Clouds
7:35 AM 60.8 °F 60.8 °F 100% 29.91 in 10.0 mi SSW 13.8 mph 21.9 mph N/A   Scattered Clouds
7:55 AM 60.8 °F 60.8 °F 100% 29.92 in 10.0 mi South 13.8 mph 20.7 mph N/A   Scattered Clouds
8:15 AM 62.6 °F 60.8 °F 94% 29.92 in 10.0 mi South 18.4 mph 23.0 mph N/A   Mostly Cloudy
8:35 AM 62.6 °F 60.8 °F 94% 29.92 in 10.0 mi SSW 19.6 mph 26.5 mph N/A   Mostly Cloudy
8:55 AM 62.6 °F 60.8 °F 94% 29.92 in 10.0 mi SSW 17.3 mph 26.5 mph N/A   Mostly Cloudy
9:15 AM 66.2 °F 62.6 °F 88% 29.92 in 10.0 mi SSW 20.7 mph 26.5 mph N/A   Scattered Clouds
9:35 AM 66.2 °F 62.6 °F 88% 29.91 in 10.0 mi SSW 18.4 mph 26.5 mph N/A   Clear
9:55 AM 68.0 °F 64.4 °F 88% 29.92 in 10.0 mi SSW 18.4 mph 25.3 mph N/A   Scattered Clouds
10:15 AM 68.0 °F 62.6 °F 83% 29.92 in 10.0 mi South 17.3 mph 21.9 mph N/A   Scattered Clouds
10:35 AM 68.0 °F 62.6 °F 83% 29.92 in 10.0 mi South 19.6 mph 27.6 mph N/A   Mostly Cloudy
11:15 AM 68.0 °F 62.6 °F 83% 29.91 in 10.0 mi South 16.1 mph 24.2 mph N/A   Overcast
11:35 AM 68.0 °F 62.6 °F 83% 29.90 in 10.0 mi South 15.0 mph 24.2 mph N/A   Overcast
11:55 AM 71.6 °F 62.6 °F 73% 29.89 in 10.0 mi South 21.9 mph 27.6 mph N/A   Overcast
12:15 PM 73.4 °F 64.4 °F 73% 29.87 in 10.0 mi SSW 19.6 mph 27.6 mph N/A   Overcast
12:35 PM 73.4 °F 64.4 °F 73% 29.86 in 10.0 mi South 21.9 mph 29.9 mph N/A   Mostly Cloudy
12:55 PM 71.6 °F 62.6 °F 73% 29.85 in 10.0 mi South 19.6 mph 25.3 mph N/A   Overcast
1:15 PM 71.6 °F 62.6 °F 73% 29.84 in 10.0 mi South 19.6 mph 25.3 mph N/A   Overcast
1:35 PM 71.6 °F 62.6 °F 73% 29.82 in 10.0 mi South 19.6 mph 27.6 mph N/A   Overcast
1:55 PM 71.6 °F 62.6 °F 73% 29.81 in 10.0 mi South 19.6 mph 24.2 mph N/A   Overcast
2:15 PM 71.6 °F 62.6 °F 73% 29.80 in 10.0 mi South 17.3 mph 26.5 mph N/A   Overcast
2:35 PM 71.6 °F 62.6 °F 73% 29.79 in 10.0 mi South 16.1 mph 26.5 mph N/A   Overcast
2:55 PM 73.4 °F 62.6 °F 69% 29.78 in 10.0 mi South 17.3 mph 24.2 mph N/A   Mostly Cloudy
3:15 PM 73.4 °F 62.6 °F 69% 29.77 in 10.0 mi South 20.7 mph 25.3 mph N/A   Mostly Cloudy
3:35 PM 73.4 °F 62.6 °F 69% 29.77 in 10.0 mi South 18.4 mph 25.3 mph N/A   Scattered Clouds
3:55 PM 73.4 °F 62.6 °F 69% 29.77 in 10.0 mi South 15.0 mph 24.2 mph N/A   Scattered Clouds
4:15 PM 73.4 °F 62.6 °F 69% 29.77 in 10.0 mi South 17.3 mph 25.3 mph N/A   Mostly Cloudy
4:35 PM 73.4 °F 62.6 °F 69% 29.76 in 10.0 mi South 15.0 mph 20.7 mph N/A   Scattered Clouds
4:55 PM 73.4 °F 62.6 °F 69% 29.75 in 10.0 mi South 19.6 mph - N/A   Clear
5:15 PM 73.4 °F 62.6 °F 69% 29.75 in 10.0 mi South 16.1 mph - N/A   Clear
5:35 PM 71.6 °F 62.6 °F 73% 29.75 in 10.0 mi SSE 15.0 mph - N/A   Clear
5:55 PM 71.6 °F 62.6 °F 73% 29.74 in 10.0 mi SSE 17.3 mph - N/A   Scattered Clouds
6:15 PM 69.8 °F 60.8 °F 73% 29.74 in 10.0 mi SSE 12.7 mph - N/A   Scattered Clouds
6:35 PM 68.0 °F 60.8 °F 78% 29.74 in 10.0 mi SSE 12.7 mph - N/A   Scattered Clouds
6:55 PM 68.0 °F 60.8 °F 78% 29.74 in 10.0 mi SSE 13.8 mph - N/A   Clear
7:15 PM 68.0 °F 60.8 °F 78% 29.74 in 10.0 mi SSE 17.3 mph 23.0 mph N/A   Clear
7:35 PM 68.0 °F 62.6 °F 83% 29.75 in 10.0 mi South 15.0 mph - N/A   Clear
7:55 PM 68.0 °F 62.6 °F 83% 29.75 in 10.0 mi SSE 16.1 mph 20.7 mph N/A   Mostly Cloudy
8:15 PM 68.0 °F 62.6 °F 83% 29.75 in 10.0 mi South 17.3 mph 21.9 mph N/A   Mostly Cloudy
8:35 PM 68.0 °F 60.8 °F 78% 29.75 in 10.0 mi South 18.4 mph 23.0 mph N/A   Scattered Clouds
8:55 PM 68.0 °F 60.8 °F 78% 29.74 in 10.0 mi SSE 16.1 mph 21.9 mph N/A   Clear
9:15 PM 68.0 °F 60.8 °F 78% 29.75 in 10.0 mi South 15.0 mph 24.2 mph N/A   Scattered Clouds
9:35 PM 68.0 °F 60.8 °F 78% 29.76 in 10.0 mi South 16.1 mph 23.0 mph N/A   Scattered Clouds
9:55 PM 68.0 °F 60.8 °F 78% 29.75 in 10.0 mi South 16.1 mph 19.6 mph N/A   Scattered Clouds
10:15 PM 68.0 °F 60.8 °F 78% 29.74 in 10.0 mi South 15.0 mph 19.6 mph N/A   Scattered Clouds
10:35 PM 68.0 °F 60.8 °F 78% 29.74 in 10.0 mi South 16.1 mph - N/A   Clear
10:55 PM 68.0 °F 60.8 °F 78% 29.74 in 10.0 mi South 17.3 mph 26.5 mph N/A   Clear
11:15 PM 68.0 °F 60.8 °F 78% 29.74 in 10.0 mi South 16.1 mph 25.3 mph N/A   Clear
11:35 PM 68.0 °F 60.8 °F 78% 29.74 in 10.0 mi South 15.0 mph 26.5 mph N/A   Clear
11:55 PM 68.0 °F 60.8 °F 78% 29.74 in 10.0 mi South 18.4 mph 25.3 mph N/A   Clear